Location: Aurora Center
(43.5271°N, 98.5894°W)
Time: 08:30:34
(UTC-05:00)

ACS3 Solar Sail - Pass Details

Date: 22 June 2024
Orbit: 992 x 1023 km, 97.4° (Epoch: 11 July)

Event Time Altitude Azimuth Distance (km) Brightness Sun altitude
Exits shadow 23:17:01 18° 178° (S) 2,248 6.2 -15.8°
Maximum altitude 23:21:50 71° 259° (W) 1,053 5.0 -16.2°
Drops below altitude 10° 23:28:03 10° 344° (NNW) 2,766 8.4 -16.8°
Sets 23:30:34 0° 346° (NNW) 3,718 9.3 -17.1°
